Regional Weather Roundup
Issued by NWS

Home | Current Version | Previous Version | Text Only | Print | Product List | Glossary Off
Versions: 1 2 3 4 5 6 7 8 9 10 11 12 13 14 15 16 17 18 19 20 21 22 23 24 25 26 27 28 29 30 31 32 33 34 35 36 37 38 39 40 41 42 43 44 45 46 47 48 49 50

000
ASUS43 KOAX 101602
RWRNE

WEATHER ROUNDUP FOR NEBRASKA
NATIONAL WEATHER SERVICE OMAHA NE
1100 AM CDT THU JUL 10 2014

NOTES: SATELLITE DATA IS BEING USED TO AUGMENT CLOUD COVER ABOVE
       12000 FEET.
       "FAIR" INDICATES FEW OR NO CLOUDS BELOW 12,000 FEET WITH NO
       SIGNIFICANT WEATHER AND/OR OBSTRUCTIONS TO VISIBILITY.

  * THESE STATIONS DO NOT REPORT WEATHER SUCH AS RAIN...SNOW OR FOG.

NEZ001>004-019>022-054>056-101700-
NEBRASKA PANHANDLE

CITY           SKY/WX    TMP DP  RH WIND       PRES   REMARKS
SCOTTSBLUFF    SUNNY     76  58  53 CALM      29.96F
ALLIANCE       SUNNY     76  59  55 S17       29.96F
CHADRON        SUNNY     80  60  50 S15       29.88F
KIMBALL        SUNNY     79  56  46 S10       30.02F
SIDNEY         SUNNY     79  57  46 S17       30.01F
$$

NEZ057>060-069>072-079>082-101700-
SOUTHWEST NEBRASKA

CITY           SKY/WX    TMP DP  RH WIND       PRES   REMARKS
NORTH PLATTE   SUNNY     76  65  68 S12G21    29.97F
IMPERIAL       SUNNY     75  62  64 S13       29.98F
LEXINGTON        N/A    N/A N/A N/A MISG        N/A
OGALLALA       SUNNY     74  62  66 S13       29.98F
$$

NEZ005>010-023>029-035>040-094-101700-
NORTH CENTRAL NEBRASKA

CITY           SKY/WX    TMP DP  RH WIND       PRES   REMARKS
VALENTINE      CLOUDY    72  62  71 S18       29.92F
AINSWORTH      PTSUNNY   72  63  75 S12       29.96F
BROKEN BOW     MOSUNNY   76  67  73 S16G28    29.97F
O`NEILL        SUNNY     75  62  64 SE12      29.97F
ORD            SUNNY     74  65  73 SE12      29.97F
THEDFORD       MOSUNNY   75  64  68 S20G25    29.98F
$$

NEZ041-046>049-061>064-073>077-083>087-101700-
SOUTH CENTRAL NEBRASKA

CITY           SKY/WX    TMP DP  RH WIND       PRES   REMARKS
GRAND ISLAND   SUNNY     74  66  76 S13       30.02S
AURORA         PTSUNNY   74  68  82 SE10      30.02S
HASTINGS       PTSUNNY   74  63  68 S9        30.02R
HEBRON         PTSUNNY   76  66  70 S10       30.03S
HOLDREGE       SUNNY     76  63  64 S10       30.01S
KEARNEY *      SUNNY     75  66  73 SE7       30.02R
YORK           MOSUNNY   73  68  83 S13       30.03S
$$

NEZ011>018-030>034-042>045-101700-
NORTHEAST NEBRASKA

CITY           SKY/WX    TMP DP  RH WIND       PRES   REMARKS
NORFOLK        SUNNY     77  65  66 S13       30.00S
ALBION         CLOUDY    72  63  73 S12       30.01F
BLAIR          SUNNY     77  62  60 S14       30.05S
FREMONT        SUNNY     78  66  64 SE12G17   30.03F
TEKAMAH        SUNNY     79  64  60 SE13      30.03S
WAYNE          SUNNY     78  66  67 S14       30.01F
$$

NEZ050>053-065>068-078-088>093-101700-
SOUTHEAST NEBRASKA

CITY           SKY/WX    TMP DP  RH WIND       PRES   REMARKS
LINCOLN        SUNNY     79  66  64 SE14      30.04R
OMAHA EPPLEY   MOSUNNY   79  62  56 S18G25    30.05R
BEATRICE       SUNNY     75  65  71 S14       30.03S
FALLS CITY     SUNNY     78  64  61 SE15      30.06R
NEBRASKA CITY  SUNNY     76  64  65 S15       30.06R
PLATTSMOUTH    SUNNY     78  63  60 SE12G17   30.05S
$$

NEZ044-045-051>053-067-101700-
OMAHA AREA

CITY           SKY/WX    TMP DP  RH WIND       PRES   REMARKS
OMAHA EPPLEY   MOSUNNY   79  62  56 S18G25    30.05R
BLAIR          SUNNY     77  62  60 S14       30.05S
FREMONT        SUNNY     78  66  64 SE12G17   30.03F
MILLARD        SUNNY     78  66  64 SE16      30.03F
OFFUTT AFB     SUNNY     80  65  59 S16       30.05R
PLATTSMOUTH    SUNNY     78  63  60 SE12G17   30.05S
WAHOO          FAIR      78  65  62 SE13      30.04S
$$


USA.gov is the U.S. government's official web portal to all federal, state and local government web resources and services.